Probability
6 8 9 11 13 13 13 14 14 13 11 10 10 10 9 9 9 8 7 6 6 7 7 7 6 6 6 5 4 3 4 4 4 4 4 4 6 5 2 1 1 0 0
7 8 10 10 11 13 13 12 12 12 11 11 11 11 10 10 9 7 6 6 6 7 7 7 6 7 7 6 4 3 4 5 5 5 4 5 6 5 2 1 0 0 0
6 7 9 9 10 12 13 11 10 10 10 10 11 11 11 10 9 7 6 6 6 6 6 6 6 6 6 5 4 3 4 6 6 5 4 5 5 4 2 1 0 0 0
4 5 6 7 8 9 10 10 9 9 9 10 10 10 9 8 7 6 6 6 5 4 4 4 4 4 3 3 3 4 5 6 5 3 2 3 4 3 2 1 0 0 0
4 3 4 4 5 6 8 9 8 8 9 10 10 9 8 7 6 6 6 5 4 3 3 2 2 1 1 1 2 4 4 4 3 1 1 2 3 3 2 0 0 0 0
4 4 3 3 4 6 7 9 9 9 10 10 10 9 8 6 5 4 4 4 4 3 2 1 0 0 0 1 1 1 2 2 2 1 1 2 3 3 2 1 0 0 0
4 3 3 3 4 6 7 9 10 11 11 10 9 9 7 4 2 1 2 3 4 3 1 1 1 2 2 2 1 0 0 1 1 0 1 2 2 2 1 1 0 0 0
4 3 3 3 4 6 7 8 10 10 11 10 9 7 5 2 0 0 1 3 3 2 1 2 3 3 3 3 2 1 0 0 0 0 0 1 1 0 0 0 0 0 0
4 3 2 3 4 5 5 6 8 9 10 9 8 6 4 1 0 0 1 2 2 1 0 1 2 2 2 1 1 1 0 0 0 0 0 0 0 0 0 0 0 0 0
2 2 1 2 3 3 4 4 6 8 8 7 6 5 3 1 0 0 1 2 1 0 0 0 0 0 0 0 0 0 0 0 0 0 0 0 0 0 0 0 0 0 0
1 1 1 2 2 3 4 5 7 7 6 5 5 4 3 2 0 0 1 1 1 0 0 0 0 0 0 0 0 0 0 0 0 0 0 0 0 1 1 1 1 0 1
0 0 1 2 3 4 5 7 9 7 5 5 5 4 3 1 0 0 0 0 0 0 0 0 0 0 0 0 0 0 0 0 0 1 1 1 1 1 3 3 3 3 3
0 0 0 1 4 7 8 8 8 7 5 4 4 3 2 1 0 0 0 0 0 0 0 0 0 0 0 0 0 0 1 1 1 2 4 4 3 2 3 3 4 5 6
0 0 1 2 4 7 8 6 6 5 4 3 3 3 2 1 0 0 0 0 0 0 0 0 0 0 0 0 0 0 1 3 2 2 4 4 3 3 2 2 2 4 5
1 1 1 2 4 5 5 4 3 3 2 3 3 3 2 1 0 0 0 0 0 0 0 0 0 0 0 0 0 1 1 1 1 1 1 2 1 1 1 0 0 1 2
1 1 1 1 2 3 2 1 1 1 1 1 2 2 2 1 0 0 0 0 0 0 0 0 0 0 0 0 0 0 0 0 0 0 0 0 0 0 0 0 0 0 0
1 0 0 0 1 1 1 0 0 0 0 0 1 1 1 0 0 0 0 0 0 0 0 0 0 0 0 0 0 0 0 0 0 0 0 0 0 0 0 0 0 0 0
0 0 0 0 0 0 0 0 0 0 0 0 0 0 0 0 0 0 0 0 0 0 0 0 0 0 0 0 0 0 0 0 0 0 0 0 0 0 0 0 0 0 0
1 0 0 0 0 0 0 0 0 0 0 0 0 0 0 0 0 0 0 0 0 0 0 0 0 0 0 0 0 0 0 0 0 0 0 0 0 0 0 0 0 0 0
3 1 0 0 0 0 0 0 0 0 0 0 0 0 0 0 0 0 0 0 0 0 0 0 0 0 0 0 0 0 0 0 0 0 0 0 0 0 0 0 0 0 0
3 1 0 0 0 0 0 0 0 0 0 0 0 0 0 0 0 0 0 0 0 0 0 0 0 0 0 0 0 0 0 0 0 0 0 0 0 0 0 0 0 0 0
2 1 0 0 0 0 0 0 0 0 0 0 0 0 0 0 0 0 0 0 0 0 0 0 0 0 0 0 0 0 0 0 0 0 0 0 0 0 0 0 0 0 0
2 1 1 0 0 0 0 0 0 0 0 0 0 0 0 0 0 0 0 0 0 0 0 0 0 0 0 0 0 0 0 0 0 0 0 0 0 0 0 0 0 0 0
1 0 0 0 0 0 0 0 0 0 0 0 0 0 0 0 0 0 0 0 0 0 0 0 0 0 0 0 0 0 0 0 0 0 0 0 0 0 0 0 0 0 0
0 0 0 0 0 0 0 0 0 0 0 0 0 0 0 0 0 0 0 0 0 0 0 0 0 0 0 0 0 0 0 0 0 0 0 0 0 0 0 0 0 0 0
0 0 0 0 0 0 0 0 0 0 0 0 0 0 0 0 0 0 0 0 0 0 0 0 0 0 0 0 0 0 0 0 0 0 0 0 0 0 0 0 0 0 0
Wind_Speed
2 2 2 2 1 1 1 1 1 1 1 1 1 2 2 2 2 2 3 3 4 4 4 4 4 4 3 3 3 3 3 3 5 5 4 4 4 4 4 4 4 5 6
3 3 3 2 1 1 1 1 1 1 1 1 1 1 2 2 2 3 3 4 4 4 4 4 4 4 3 3 3 4 4 4 4 6 5 4 5 4 4 5 4 5 4
3 3 3 2 1 1 1 1 1 1 1 1 1 1 2 2 2 3 3 4 4 4 4 4 4 4 4 3 4 4 4 5 4 5 6 4 4 4 3 4 4 3 4
3 3 3 2 1 1 1 1 1 0 1 1 1 2 2 1 2 2 3 4 4 4 4 4 4 4 4 4 5 4 5 5 5 5 5 4 4 3 2 3 3 3 4
2 2 2 2 2 2 1 1 1 1 1 1 1 2 2 2 2 2 3 5 4 4 4 4 5 4 4 4 5 5 5 4 5 5 5 4 4 3 3 3 4 3 4
2 2 2 2 2 2 1 1 0 1 1 1 1 2 3 3 3 4 3 4 5 5 5 4 5 3 4 5 7 8 7 6 5 5 5 5 5 4 3 4 4 3 4
2 1 2 2 2 1 1 1 0 1 1 1 1 2 2 2 3 4 5 4 5 5 5 4 5 5 4 5 6 7 7 8 8 6 6 6 6 5 4 5 4 4 5
2 1 1 2 2 1 1 0 0 1 1 2 2 3 2 3 3 5 6 5 5 5 5 4 4 4 4 5 6 6 6 6 7 6 5 6 6 5 5 5 5 5 5
2 2 2 2 2 1 1 1 1 1 2 2 2 3 2 2 3 4 5 4 4 5 5 4 3 2 4 5 5 6 7 6 7 7 7 8 8 9 6 3 4 4 5
1 2 2 2 1 1 0 1 1 1 2 3 3 2 2 1 2 3 5 4 4 4 4 3 3 3 4 5 5 5 7 7 7 7 6 7 6 7 8 5 4 4 5
1 2 2 1 1 1 1 1 2 2 3 3 3 2 1 1 1 2 3 3 4 5 5 4 3 3 5 7 6 6 8 8 7 6 6 5 4 4 3 4 4 4 5
1 2 2 1 1 1 1 1 2 2 2 2 2 2 1 1 1 2 3 4 5 5 5 4 4 7 9 9 7 7 9 8 5 5 5 4 4 4 4 4 5 6 5
1 1 1 2 1 1 1 1 1 2 2 2 1 1 1 1 1 2 4 6 7 4 5 8 9 10 9 7 6 8 6 4 4 4 4 4 4 4 4 4 4 5 5
1 1 1 2 2 1 1 1 0 1 1 2 2 2 2 2 2 3 3 4 6 5 5 7 8 8 6 6 5 4 3 3 3 4 4 4 4 4 3 3 4 4 3
1 1 2 2 2 1 1 1 1 1 1 1 2 3 3 3 3 4 4 4 5 5 6 4 4 4 4 3 3 3 3 3 4 4 4 5 5 4 4 3 3 4 4
1 1 1 1 1 2 2 1 1 1 1 1 1 1 1 1 3 6 6 7 8 7 4 4 4 4 4 4 4 4 4 4 4 4 4 5 5 5 5 4 4 4 4
1 1 2 1 1 1 2 2 2 1 1 1 1 1 2 4 5 6 8 9 8 5 3 4 4 4 4 5 5 5 5 5 4 5 5 5 6 6 5 5 5 4 5
2 2 2 2 1 1 1 1 1 1 1 1 2 3 4 5 5 6 7 6 5 2 3 4 4 4 4 4 5 5 5 5 5 5 6 6 6 6 6 6 5 6 5
1 1 2 2 2 2 1 1 1 1 1 1 2 1 3 4 4 6 4 3 4 4 4 4 4 4 5 5 4 4 5 5 5 5 5 6 6 6 6 7 6 8 6
2 2 2 2 2 1 1 1 1 1 1 1 2 2 1 1 1 2 1 2 4 4 4 5 4 4 4 5 5 5 5 5 5 5 6 6 6 6 7 7 7 6 5
2 3 5 3 1 1 2 2 1 2 2 2 2 2 1 2 2 2 2 2 3 4 4 4 4 4 4 4 5 6 7 6 6 6 6 6 7 6 6 6 7 6 6
3 1 2 1 0 1 1 2 2 2 2 2 1 2 2 2 3 3 3 3 3 3 3 4 5 5 5 6 6 6 6 7 7 7 7 7 7 6 6 6 6 6 6
4 2 0 1 1 1 1 1 2 2 2 2 3 3 2 2 3 3 3 3 3 3 3 3 4 5 6 5 6 6 6 7 7 8 8 8 7 7 6 6 7 7 7
4 2 1 0 0 0 0 1 1 2 3 3 3 3 3 2 3 4 3 3 3 3 4 4 4 6 8 7 6 6 6 6 8 7 9 8 7 6 7 7 7 8 7
4 2 1 0 0 1 1 1 2 2 2 3 3 3 3 3 3 3 3 4 4 4 5 5 4 5 8 10 9 7 6 6 6 7 8 7 7 7 7 7 6 6 7
3 2 2 1 0 0 1 1 1 2 2 2 2 2 3 3 3 3 3 3 4 4 4 4 6 8 8 8 8 7 6 8 9 9 8 6 6 6 7 7 8 7 7
Wind_Direction
127 116 98 91 93 145 176 186 183 193 193 188 209 229 234 233 239 248 257 263 267 272 275 280 280 284 286 288 290 286 281 272 277 284 283 288 286 279 264 253 242 230 231
139 132 130 132 144 165 164 166 190 202 223 238 235 229 241 244 246 251 263 273 274 280 284 285 285 286 288 289 290 289 287 275 270 282 284 280 276 272 260 256 263 254 240
139 128 129 140 154 162 161 161 199 222 268 283 270 253 259 263 272 277 282 287 287 287 288 289 290 286 282 286 284 286 289 289 278 274 279 277 273 277 280 278 277 274 267
126 127 130 150 173 175 172 185 199 240 279 278 285 285 284 293 299 317 316 295 292 292 291 293 293 288 283 287 285 284 287 293 290 287 284 285 283 282 286 284 289 281 280
128 133 137 149 164 160 170 198 210 252 284 306 318 314 309 307 328 329 307 297 298 294 296 295 292 294 302 296 294 294 293 286 286 285 287 293 294 299 293 289 291 288 278
140 139 139 142 139 139 155 195 231 263 298 303 319 315 315 321 341 336 318 305 298 292 289 290 289 283 294 294 289 284 276 278 288 286 287 290 290 292 294 290 292 299 291
139 153 141 137 133 143 170 155 224 282 302 306 302 306 313 326 332 329 319 297 289 285 284 284 293 304 318 311 302 292 280 270 258 260 274 281 287 290 290 288 285 286 282
154 158 147 150 141 138 151 192 278 297 294 292 292 295 296 315 328 322 319 294 282 285 286 285 293 301 313 308 295 294 287 284 272 258 258 268 278 278 273 273 274 280 278
164 157 163 159 153 159 179 213 227 255 266 275 283 283 293 310 311 319 325 304 307 305 297 301 294 297 308 317 303 295 295 296 296 288 271 269 273 275 273 280 283 281 284
160 150 148 149 158 160 196 263 273 273 271 269 271 273 271 271 288 310 319 304 313 310 303 294 305 309 312 317 302 296 292 296 304 304 295 283 269 264 256 237 251 269 280
147 134 133 143 162 170 206 244 244 259 271 271 280 273 250 227 241 304 313 309 313 312 314 319 326 323 306 301 293 281 279 290 296 291 287 283 277 271 255 237 237 245 265
108 120 132 155 217 183 203 240 250 260 268 274 269 264 246 178 67 313 313 306 306 310 312 316 318 312 307 302 295 287 295 303 291 288 288 291 290 285 277 265 253 251 251
112 131 164 177 194 215 237 245 253 260 274 285 294 302 1 31 20 328 322 321 317 308 312 315 311 302 303 301 293 296 301 296 295 298 303 303 297 295 291 282 277 269 265
199 205 213 197 195 195 257 272 296 321 319 325 338 345 10 32 22 0 341 326 326 326 328 322 315 310 309 304 310 309 295 305 313 311 316 312 309 306 302 301 299 290 283
222 220 227 218 186 169 157 354 359 34 12 345 358 8 11 10 358 346 335 331 333 338 332 317 314 324 326 327 327 327 329 334 329 321 319 318 316 316 316 319 312 307 296
235 236 249 226 191 193 172 143 75 166 155 127 94 30 5 346 331 333 331 322 316 322 324 313 321 330 335 340 345 348 349 351 345 340 336 333 331 331 328 326 325 319 316
249 257 284 288 237 224 206 190 170 165 230 249 223 261 265 287 304 313 319 322 316 323 316 317 337 346 347 351 355 353 351 352 351 345 338 336 334 332 330 325 327 332 327
241 225 256 272 269 264 251 233 176 159 172 180 199 229 248 265 285 301 318 333 329 348 340 345 348 348 349 352 353 351 349 348 350 345 345 343 337 333 332 331 331 333 324
249 250 254 273 276 277 287 304 65 57 42 81 118 155 253 274 282 291 310 320 332 354 358 350 347 346 350 352 351 349 346 346 349 344 342 339 335 333 332 331 329 328 323
225 246 267 271 277 293 315 334 17 34 20 47 63 83 45 315 320 337 323 331 347 356 355 347 347 350 353 351 348 348 346 347 345 342 338 335 333 330 329 327 326 326 327
231 201 214 243 282 348 344 345 11 357 13 31 57 107 147 317 342 359 357 359 3 354 355 348 346 352 355 349 349 349 352 351 348 344 341 336 333 331 328 326 328 331 333
283 248 186 194 143 51 333 326 349 357 7 15 33 98 183 303 348 3 9 16 9 1 3 359 355 1 3 357 355 357 360 357 351 345 337 330 328 329 329 328 329 329 331
279 277 211 140 146 136 245 317 346 353 2 14 17 25 31 10 12 16 16 19 17 11 7 6 4 10 8 4 8 16 11 359 345 335 330 328 329 328 326 326 329 332 335
283 288 307 47 82 143 355 354 12 5 359 15 20 16 24 27 19 23 18 17 17 14 12 14 16 16 13 14 19 24 20 358 341 332 329 321 322 327 329 330 332 336 335
285 291 293 326 357 357 11 11 15 10 3 17 22 12 10 20 32 30 23 15 8 15 16 17 15 15 21 29 27 20 5 349 343 333 322 315 320 327 328 329 331 332 333
281 284 284 263 223 324 26 31 20 7 359 5 16 11 11 18 31 32 23 13 6 12 14 19 24 29 29 32 27 15 358 347 342 335 322 309 319 334 336 332 334 338 343